Total_Precipitation_Accumulation
0.79 0.95 1.18 0.87 0.60 0.63 0.70 0.70 0.67 0.61 0.58 0.60 0.64 0.61 0.59 0.65 0.63 0.61 0.61 0.67 0.75 0.84 0.82 0.80 0.74 0.73 0.74 0.69 0.71 0.61 0.56 0.56 0.62 0.68 0.74 0.73 0.80 1.05 1.35 1.43 1.47 0.95 0.93
0.56 0.73 0.96 0.77 0.54 0.53 0.60 0.64 0.63 0.61 0.57 0.59 0.64 0.65 0.71 0.73 0.66 0.61 0.68 0.70 0.72 0.76 0.68 0.60 0.58 0.57 0.60 0.56 0.51 0.45 0.53 0.66 0.78 0.96 0.94 0.80 0.83 1.06 1.29 1.31 1.44 0.87 0.80
0.48 0.54 0.61 0.62 0.53 0.50 0.58 0.63 0.66 0.70 0.69 0.67 0.67 0.69 0.72 0.70 0.66 0.67 0.67 0.64 0.64 0.65 0.57 0.52 0.49 0.44 0.45 0.45 0.46 0.50 0.64 0.85 1.09 1.24 1.36 0.83 0.62 0.99 1.09 1.08 0.98 0.80 0.78
0.47 0.42 0.38 0.46 0.48 0.49 0.59 0.66 0.81 0.80 0.75 0.69 0.70 0.67 0.62 0.61 0.60 0.58 0.58 0.58 0.61 0.56 0.50 0.44 0.41 0.37 0.37 0.37 0.44 0.59 0.77 0.94 1.15 1.52 1.45 0.73 0.45 0.67 0.84 0.87 0.79 0.76 0.70
0.40 0.39 0.43 0.47 0.46 0.54 0.62 0.69 0.76 0.68 0.62 0.62 0.66 0.64 0.62 0.60 0.59 0.58 0.56 0.54 0.54 0.49 0.43 0.37 0.37 0.36 0.35 0.39 0.49 0.65 0.79 0.91 1.25 1.39 0.93 0.81 0.77 0.76 0.72 0.79 0.82 0.74 0.60
0.33 0.37 0.42 0.45 0.49 0.53 0.54 0.58 0.64 0.63 0.57 0.58 0.59 0.61 0.62 0.60 0.61 0.56 0.49 0.47 0.45 0.45 0.41 0.39 0.37 0.37 0.38 0.44 0.52 0.64 0.81 1.04 1.16 0.77 0.64 0.62 0.65 0.77 0.69 0.86 0.94 0.79 0.64
0.36 0.41 0.42 0.51 0.54 0.53 0.49 0.53 0.54 0.55 0.56 0.59 0.57 0.55 0.55 0.53 0.55 0.51 0.44 0.40 0.41 0.40 0.37 0.38 0.38 0.42 0.46 0.51 0.57 0.67 0.86 1.17 0.90 0.58 0.63 0.68 0.65 0.66 0.75 0.98 1.12 0.98 0.81
0.55 0.56 0.54 0.61 0.59 0.58 0.55 0.55 0.51 0.50 0.51 0.47 0.46 0.48 0.46 0.43 0.47 0.51 0.48 0.40 0.38 0.39 0.36 0.35 0.37 0.45 0.53 0.58 0.64 0.71 0.86 0.91 0.55 0.48 0.47 0.54 0.49 0.54 0.76 0.98 1.13 1.12 1.02
0.81 0.68 0.65 0.72 0.71 0.67 0.74 0.66 0.58 0.52 0.50 0.49 0.47 0.48 0.47 0.43 0.42 0.44 0.52 0.48 0.41 0.45 0.43 0.42 0.41 0.48 0.54 0.61 0.64 0.71 0.83 0.86 0.63 0.59 0.49 0.49 0.50 0.69 1.02 1.15 1.15 1.15 1.12
1.27 1.04 0.90 0.83 0.74 0.70 0.71 0.71 0.66 0.59 0.53 0.53 0.52 0.47 0.50 0.49 0.46 0.50 0.48 0.52 0.51 0.55 0.60 0.56 0.53 0.55 0.57 0.59 0.66 0.75 0.79 0.73 0.70 0.66 0.57 0.46 0.57 0.85 1.17 1.30 1.32 1.26 1.17
1.56 1.38 1.13 0.93 0.86 0.85 0.73 0.68 0.76 0.73 0.67 0.67 0.67 0.63 0.75 0.88 0.76 0.80 0.69 0.77 0.76 0.78 0.81 0.81 0.83 0.84 0.81 0.72 0.85 0.94 0.83 0.83 0.87 0.76 0.60 0.50 0.67 0.96 1.25 1.37 1.37 1.35 1.24
1.81 1.53 1.33 1.13 0.96 0.86 0.75 0.85 1.08 0.91 0.90 0.99 1.06 1.06 1.28 1.47 1.44 0.95 0.96 1.22 1.28 1.34 1.32 1.33 1.34 1.17 1.03 0.99 1.41 1.60 1.00 0.94 0.98 0.89 0.76 0.75 0.99 1.25 1.51 1.45 1.35 1.37 1.27
2.11 1.84 1.59 1.34 1.10 0.99 1.06 0.95 1.09 1.25 1.33 1.35 1.35 1.35 1.52 1.43 1.23 1.07 1.18 1.45 1.68 1.74 1.63 1.80 1.87 1.55 1.61 1.88 1.87 1.68 1.21 1.30 1.30 1.22 1.08 1.17 1.40 1.69 2.06 1.85 1.53 1.39 1.33
2.23 2.08 2.02 1.65 1.45 1.54 1.40 1.12 1.04 1.08 1.20 1.38 1.61 1.57 1.63 1.82 1.73 1.66 1.73 1.78 1.89 2.07 2.32 2.24 2.41 2.27 2.22 2.11 2.06 1.93 1.70 1.72 1.68 1.78 1.71 1.54 1.62 1.89 2.37 2.34 1.89 1.59 1.41
2.22 2.22 2.22 2.05 1.86 1.92 1.73 1.53 1.31 1.42 1.44 1.49 1.62 1.77 1.71 1.93 2.10 2.09 2.06 2.03 1.91 1.98 2.14 2.33 2.37 2.71 2.83 2.47 2.09 1.95 1.94 2.01 1.94 1.90 1.82 1.72 1.65 1.79 2.19 2.44 2.30 2.04 1.73
2.48 2.51 2.34 2.27 2.26 2.25 2.16 2.12 2.02 1.78 1.84 1.76 1.71 1.71 1.76 1.98 2.23 2.35 2.22 2.18 2.04 2.01 2.15 2.31 2.47 2.95 2.97 2.79 2.37 2.12 2.04 1.99 1.83 1.74 1.82 2.01 1.85 1.73 1.87 2.17 2.40 2.37 2.21
2.87 2.88 2.88 2.85 2.98 2.90 2.74 2.61 2.40 2.23 2.09 2.05 2.09 2.10 1.99 2.02 2.22 2.25 2.08 1.98 2.04 2.19 2.36 2.37 2.48 2.77 2.55 2.55 2.34 2.15 1.95 1.75 1.58 1.53 1.71 1.88 1.78 1.75 1.87 2.02 2.23 2.34 2.45
3.12 3.24 3.41 3.43 3.42 3.27 3.25 3.18 2.92 2.69 2.53 2.37 2.32 2.34 2.17 2.09 2.11 2.28 2.10 1.95 2.26 2.31 2.40 2.63 2.75 2.76 2.71 2.72 2.47 2.12 1.88 1.75 1.41 1.31 1.34 1.49 1.69 1.49 1.75 1.99 2.06 2.14 2.40
3.59 3.82 3.97 3.98 3.84 3.59 3.61 3.58 3.42 3.24 2.91 2.56 2.41 2.33 2.17 2.11 2.19 2.44 2.42 2.51 2.56 2.60 2.63 2.50 2.81 2.85 2.73 2.74 2.39 2.13 1.76 1.56 1.36 1.21 1.18 1.18 1.34 1.45 1.54 1.63 1.78 1.89 2.28
4.12 4.50 4.32 4.20 4.37 4.24 4.07 3.90 3.61 3.16 2.76 2.62 2.56 2.38 2.23 2.23 2.31 2.66 2.52 2.52 2.58 2.72 2.76 2.71 2.76 2.76 2.50 2.48 2.24 2.01 1.63 1.29 1.23 1.16 1.03 1.04 1.13 1.16 1.38 1.64 1.79 1.59 1.92
4.17 4.56 4.70 4.69 4.56 4.34 3.92 3.57 3.31 3.09 2.93 2.69 2.51 2.43 2.29 2.18 2.29 2.64 2.55 2.72 2.66 2.65 2.64 2.68 2.73 2.59 2.22 2.42 2.51 2.03 1.51 1.18 1.20 1.01 0.92 0.98 1.05 1.09 1.33 1.62 1.81 1.77 1.60
3.83 4.28 4.57 4.71 4.59 4.19 3.76 3.52 3.37 3.31 2.94 2.64 2.61 2.64 2.46 2.47 2.49 2.50 2.63 2.61 2.64 2.73 2.64 2.59 2.65 2.48 2.10 2.25 2.47 2.52 1.90 1.52 1.19 0.87 0.96 1.07 1.18 1.29 1.34 1.47 1.65 1.80 1.77
3.36 3.67 3.79 3.94 3.90 3.73 3.73 3.71 3.62 3.56 3.10 2.96 2.94 2.91 2.74 2.72 2.70 2.68 2.65 2.54 2.49 2.34 2.36 2.41 2.41 2.41 2.26 2.16 2.37 2.63 2.21 1.74 1.45 1.06 1.02 1.10 1.27 1.47 1.48 1.56 1.59 1.77 1.91
2.91 3.25 3.48 3.54 3.49 3.39 3.47 3.48 3.34 3.12 2.94 3.04 3.30 3.26 2.99 2.75 2.56 2.36 2.25 2.30 2.27 2.13 2.12 1.90 1.99 2.11 2.08 1.92 2.08 2.14 2.16 2.17 2.08 1.51 1.16 1.05 1.21 1.37 1.50 1.42 1.43 1.65 1.95
2.51 2.80 3.05 3.31 3.40 3.33 3.36 3.28 3.27 3.14 3.13 3.17 3.12 3.07 2.82 2.58 2.26 1.96 1.90 1.97 1.96 1.87 1.80 1.74 1.86 1.77 1.70 1.68 1.85 2.02 2.09 2.16 2.11 1.98 1.60 1.51 1.51 1.41 1.37 1.39 1.54 1.67 1.80
2.15 2.27 2.41 2.63 2.90 3.05 3.09 3.05 3.07 3.00 2.99 2.91 2.79 2.62 2.39 2.20 1.93 1.68 1.55 1.66 1.76 1.78 1.75 1.73 1.80 1.70 1.67 1.79 1.76 1.82 2.00 2.03 2.04 2.16 1.85 1.71 1.67 1.46 1.41 1.47 1.52 1.70 1.75